Location: Croisilles
(50.1998°N, 2.8793°E)
Time: 20:12:53
(UTC+00:00)

YAOGAN 3 - Pass Details

Date: 21 January 2021
Orbit: 625 x 627 km, 98.0° (Epoch: 02 March)

Event Time Altitude Azimuth Distance (km) Brightness Sun altitude
Rises 17:36:07 0° 159° (SSE) 2,901 8.0 -11.4°
Reaches altitude 10° 17:38:17 10° 158° (SSE) 1,999 7.1 -11.7°
Maximum altitude 17:42:38 75° 74° (ENE) 656 4.5 -12.4°
Drops below altitude 10° 17:47:01 10° 349° (N) 2,015 7.1 -13.0°
Sets 17:49:13 0° 348° (NNW) 2,927 8.0 -13.4°
